Welcome to Des Moines Iowa Weather. I am an independent private personal weather station on the Northwest Side of Des Moines, Iowa. Just East of Windsor Heights and just West of Glendale . This site is also mobile friendly.

There are no active watches, warnings or advisories


Visit our other weather sites:

Historical Data

Weather Station Setup



Weather Underground History page Text

Daily Summary for January 14, 2018 Units:  Metric    English   Both
« Previous Day
Next Day »
Daily Weekly Monthly Yearly Custom
  High: Low: Average:
Temperature: -3.8 °C -12.9 °C -8 °C
Dew Point: -5 °C -17.8 °C -10.7 °C
Humidity: 92 % 68 % 81 %
Wind Speed: 16.1 km/h 0 km/h 1.9 km/h
Wind Gust: 30.6 km/h - -
Wind:- - South
Pressure: 1038.1 hPa 1020.5 hPa -
Precipitation: 0 mm    
Historical Graphs
 
 
Tabular Data for January 14, 2018
Time Temperature Dew Point Pressure Wind Wind Speed Wind Gust Humidity Rainfall Rate (Hourly)
00:14 -12.9 °C -17.8 °C 1038.1 hPa Calm   3.2 km/h 68 % 0 mm
00:29 -12.9 °C -17.8 °C 1038.1 hPa Calm   3.2 km/h 68 % 0 mm
01:00 -12.8 °C -17.8 °C 1037.8 hPa Calm     68 % 0 mm
01:15 -12.7 °C -17.2 °C 1037.5 hPa Calm   1.6 km/h 69 % 0 mm
01:30 -12.7 °C -17.2 °C 1037.5 hPa East 1.6 km/h 4.8 km/h 70 % 0 mm
01:45 -12.7 °C -17.2 °C 1037.5 hPa Calm   4.8 km/h 70 % 0 mm
02:00 -12.8 °C -17.2 °C 1037.1 hPa Calm   9.7 km/h 70 % 0 mm
02:15 -12.8 °C -17.2 °C 1037.1 hPa Calm   6.4 km/h 71 % 0 mm
02:31 -12.8 °C -17.2 °C 1037.1 hPa ESE 3.2 km/h 6.4 km/h 71 % 0 mm
02:45 -12.8 °C -16.7 °C 1037.5 hPa Calm   4.8 km/h 72 % 0 mm
03:00 -12.8 °C -16.7 °C 1037.1 hPa Calm   3.2 km/h 72 % 0 mm
03:15 -12.7 °C -16.7 °C 1037.1 hPa ESE 1.6 km/h 3.2 km/h 73 % 0 mm
03:30 -12.7 °C -16.7 °C 1037.1 hPa Calm   4.8 km/h 73 % 0 mm
03:45 -12.6 °C -16.7 °C 1036.8 hPa ESE 3.2 km/h 6.4 km/h 73 % 0 mm
04:00 -12.4 °C -16.1 °C 1036.5 hPa ESE 3.2 km/h 4.8 km/h 73 % 0 mm
04:15 -12.4 °C -16.1 °C 1036.5 hPa SSE 1.6 km/h 9.7 km/h 73 % 0 mm
04:30 -12.3 °C -16.1 °C 1036.1 hPa Calm   4.8 km/h 74 % 0 mm
05:00 -12.2 °C -16.1 °C 1035.8 hPa Calm   9.7 km/h 74 % 0 mm
05:15 -12 °C -15.6 °C 1035.8 hPa SSE 1.6 km/h 8 km/h 75 % 0 mm
05:30 -11.9 °C -15.6 °C 1035.4 hPa SSE 1.6 km/h 4.8 km/h 75 % 0 mm
05:45 -11.8 °C -15.6 °C 1035.1 hPa Calm   4.8 km/h 75 % 0 mm
06:00 -11.8 °C -15 °C 1035.1 hPa SSE 1.6 km/h 8 km/h 76 % 0 mm
06:15 -11.7 °C -15 °C 1035.1 hPa Calm   8 km/h 76 % 0 mm
06:30 -11.6 °C -15 °C 1034.8 hPa Calm   4.8 km/h 76 % 0 mm
06:45 -11.5 °C -15 °C 1034.8 hPa Calm   9.7 km/h 77 % 0 mm
07:00 -11.3 °C -14.4 °C 1034.4 hPa Calm   4.8 km/h 77 % 0 mm
07:15 -11.3 °C -14.4 °C 1034.1 hPa SE 1.6 km/h 6.4 km/h 78 % 0 mm
07:30 -11.2 °C -13.9 °C 1034.1 hPa SE 4.8 km/h 6.4 km/h 79 % 0 mm
07:45 -11.1 °C -13.9 °C 1033.7 hPa SSE 3.2 km/h 8 km/h 80 % 0 mm
08:01 -11 °C -13.9 °C 1033.4 hPa Calm   8 km/h 81 % 0 mm
08:16 -10.8 °C -13.3 °C 1033.1 hPa SSE 1.6 km/h 9.7 km/h 81 % 0 mm
08:32 -10.7 °C -13.3 °C 1032.7 hPa SE 3.2 km/h 8 km/h 81 % 0 mm
08:46 -10.4 °C -12.8 °C 1032.7 hPa SE 3.2 km/h 11.3 km/h 82 % 0 mm
09:01 -10.2 °C -12.8 °C 1032.4 hPa SE 4.8 km/h 11.3 km/h 82 % 0 mm
09:16 -9.8 °C -12.2 °C 1032.1 hPa SSE 6.4 km/h 12.9 km/h 83 % 0 mm
09:31 -9.5 °C -11.7 °C 1032.1 hPa SSE 1.6 km/h 9.7 km/h 83 % 0 mm
09:46 -9.1 °C -11.7 °C 1032.1 hPa SW 1.6 km/h 11.3 km/h 83 % 0 mm
10:01 -8.6 °C -11.1 °C 1032.1 hPa South 3.2 km/h 6.4 km/h 83 % 0 mm
10:16 -7.9 °C -10 °C 1032.1 hPa SSE 3.2 km/h 9.7 km/h 83 % 0 mm
10:31 -7.5 °C -10 °C 1031.7 hPa SSE 3.2 km/h 12.9 km/h 82 % 0 mm
10:46 -7.2 °C -10 °C 1031.4 hPa SSE 1.6 km/h 12.9 km/h 81 % 0 mm
11:01 -7.1 °C -10 °C 1030.7 hPa ESE 6.4 km/h 9.7 km/h 80 % 0 mm
11:16 -7.1 °C -10 °C 1030.4 hPa South 1.6 km/h 11.3 km/h 81 % 0 mm
11:31 -6.7 °C -9.4 °C 1030 hPa SSE 4.8 km/h 12.9 km/h 81 % 0 mm
11:46 -6.4 °C -9.4 °C 1029.7 hPa South 1.6 km/h 9.7 km/h 81 % 0 mm
12:01 -6.4 °C -9.4 °C 1029.3 hPa Calm   9.7 km/h 80 % 0 mm
12:17 -6.3 °C -9.4 °C 1028.7 hPa SSW 1.6 km/h 9.7 km/h 80 % 0 mm
12:32 -6.2 °C -8.9 °C 1028 hPa SW 4.8 km/h 8 km/h 80 % 0 mm
12:47 -6 °C -8.9 °C 1027 hPa SSW 1.6 km/h 9.7 km/h 80 % 0 mm
13:02 -5.8 °C -8.9 °C 1026.6 hPa SSW 4.8 km/h 9.7 km/h 80 % 0 mm
13:17 -5.8 °C -8.9 °C 1027 hPa SSE 8 km/h 11.3 km/h 80 % 0 mm
13:32 -5.8 °C -8.9 °C 1026.3 hPa Calm   8 km/h 80 % 0 mm
13:47 -5.6 °C -8.3 °C 1025.6 hPa SSE 3.2 km/h 12.9 km/h 81 % 0 mm
14:02 -5.6 °C -8.3 °C 1025.3 hPa South 1.6 km/h 9.7 km/h 81 % 0 mm
14:17 -5.4 °C -8.3 °C 1024.9 hPa SW 1.6 km/h 16.1 km/h 81 % 0 mm
14:32 -5.2 °C -7.8 °C 1024.9 hPa South 6.4 km/h 12.9 km/h 81 % 0 mm
14:47 -5.2 °C -7.8 °C 1024.6 hPa South 4.8 km/h 11.3 km/h 81 % 0 mm
15:02 -5.2 °C -7.8 °C 1024.3 hPa Calm   11.3 km/h 81 % 0 mm
15:17 -5.2 °C -7.8 °C 1023.9 hPa Calm   11.3 km/h 82 % 0 mm
15:32 -5.1 °C -7.8 °C 1023.9 hPa Calm   11.3 km/h 82 % 0 mm
15:48 -5 °C -7.8 °C 1023.6 hPa SSW 3.2 km/h 8 km/h 82 % 0 mm
16:02 -4.9 °C -7.8 °C 1023.9 hPa SW 4.8 km/h 9.7 km/h 82 % 0 mm
16:17 -5 °C -7.8 °C 1023.6 hPa Calm   9.7 km/h 82 % 0 mm
16:32 -5 °C -7.2 °C 1023.6 hPa Calm   9.7 km/h 83 % 0 mm
16:47 -5 °C -7.2 °C 1023.2 hPa SSW 1.6 km/h 11.3 km/h 83 % 0 mm
17:02 -5 °C -7.2 °C 1022.9 hPa SSE 1.6 km/h 8 km/h 84 % 0 mm
17:17 -5.1 °C -7.2 °C 1022.6 hPa Calm   9.7 km/h 84 % 0 mm
17:47 -5.1 °C -7.2 °C 1022.2 hPa Calm   6.4 km/h 85 % 0 mm
18:02 -5.1 °C -7.2 °C 1021.9 hPa Calm   6.4 km/h 85 % 0 mm
18:18 -5 °C -7.2 °C 1021.6 hPa SSW 4.8 km/h 8 km/h 85 % 0 mm
18:32 -5 °C -7.2 °C 1021.2 hPa SSW 3.2 km/h 6.4 km/h 86 % 0 mm
18:47 -5.1 °C -6.7 °C 1021.6 hPa Calm   9.7 km/h 87 % 0 mm
19:02 -5 °C -6.7 °C 1021.6 hPa Calm   4.8 km/h 87 % 0 mm
19:17 -5 °C -6.7 °C 1021.2 hPa Calm   3.2 km/h 88 % 0 mm
19:32 -5 °C -6.7 °C 1021.6 hPa Calm     89 % 0 mm
19:48 -5 °C -6.7 °C 1021.2 hPa Calm   1.6 km/h 89 % 0 mm
20:03 -4.9 °C -6.1 °C 1021.2 hPa SSW 1.6 km/h 4.8 km/h 90 % 0 mm
20:18 -4.9 °C -6.1 °C 1021.2 hPa Calm   3.2 km/h 90 % 0 mm
20:33 -4.9 °C -6.1 °C 1020.9 hPa Calm     90 % 0 mm
20:48 -4.9 °C -6.1 °C 1020.9 hPa Calm   3.2 km/h 90 % 0 mm
21:03 -4.8 °C -6.1 °C 1020.9 hPa Calm   3.2 km/h 91 % 0 mm
21:18 -4.8 °C -6.1 °C 1020.9 hPa Calm   3.2 km/h 91 % 0 mm
21:33 -4.8 °C -6.1 °C 1020.9 hPa Calm   4.8 km/h 91 % 0 mm
21:48 -4.8 °C -5.6 °C 1020.5 hPa Calm   3.2 km/h 92 % 0 mm
22:03 -4.7 °C -5.6 °C 1020.9 hPa Calm   3.2 km/h 92 % 0 mm
22:19 -4.7 °C -5.6 °C 1020.9 hPa Calm   1.6 km/h 92 % 0 mm
22:33 -4.5 °C -5.6 °C 1020.9 hPa Calm   6.4 km/h 92 % 0 mm
22:48 -4.3 °C -5.6 °C 1021.2 hPa WNW 3.2 km/h 9.7 km/h 92 % 0 mm
23:03 -3.8 °C -5 °C 1021.2 hPa WNW 3.2 km/h 9.7 km/h 92 % 0 mm
23:18 -3.8 °C -5 °C 1021.6 hPa NW 8 km/h 19.3 km/h 92 % 0 mm
23:33 -4.3 °C -5.6 °C 1021.9 hPa NNW 6.4 km/h 20.9 km/h 90 % 0 mm
23:48 -5.7 °C -7.2 °C 1022.2 hPa NW 16.1 km/h 30.6 km/h 88 % 0 mm
Des Moines Weather and Climate
Compliments of Weather Underground - 3 mb

Script developed by  Jim McMurry - jmcmurry@mwt.net Adapted for the template by  Wim van der Kuil - Leuven-Template.eu

You find our weather info also at:

Weather Underground

Equipment we use:

Weather-station
Davis VP2 Plus

Weather-program
Davis Weatherlink.Com

Weather-server
iMac (Retina 4K, 21.5-inch, Late 2015)

Provider
Hostmonster.com

Davis VP2 Plus

Davis Weatherlink.Com

iMac (Retina 4K, 21.5-inch, Late 2015)

Hostmonster.com